Regional Weather Roundup
Issued by NWS Green Bay, WI

Home | Current Version | Previous Version | Text Only | Print | Product List | Glossary On
Versions: 1 2 3 4 5 6 7 8 9 10 11 12 13 14 15 16 17 18 19 20 21 22 23 24 25 26 27 28 29 30 31 32 33 34 35 36 37 38 39 40 41 42 43 44 45 46 47 48 49 50
315
ASUS43 KGRB 180611
RWRGRB

NORTH-CENTRAL AND NORTHEAST WISCONSIN REGIONAL WEATHER ROUNDUP
NATIONAL WEATHER SERVICE GREEN BAY WI
100 AM CDT WED OCT 18 2017

WIZ005-009-010>012-018-019-180700-
NORTH CENTRAL WISCONSIN

CITY           SKY/WX    TMP DP  RH WIND       PRES   REMARKS
IRONWOOD       CLEAR     57  44  62 S10       29.88F
MANITOWISH WTR CLEAR     49  45  88 S5        29.93S
ARBOR VITAE    CLEAR     52  46  79 S7        29.94S
EAGLE RIVER    CLEAR     50  42  75 S5        29.95S
LAND O LAKES   CLEAR     49  43  80 CALM      29.95F
RHINELANDER    CLEAR     54  45  71 SW7       29.97S
PHILLIPS       CLEAR     51  44  78 S5        29.93S
ANTIGO         CLEAR     50  44  78 SW8       29.99S
TOMAHAWK       CLEAR     46  42  88 CALM      29.97S
MERRILL        CLEAR     53  45  74 SW6       29.98S
$$

WIZ013-073-180700-
NORTHEAST WISCONSIN

CITY           SKY/WX    TMP DP  RH WIND       PRES   REMARKS
IRON MOUNTAIN  CLEAR     49  42  77 SE5       29.95F
MARINETTE      CLEAR     56  47  71 SW8       29.99F
OCONTO         CLEAR     54  46  75 SW6       30.00S
$$

WIZ017-030-035>037-045-180700-
CENTRAL WISCONSIN

CITY           SKY/WX    TMP DP  RH WIND       PRES   REMARKS
MEDFORD        CLEAR     53  44  70 S9        29.96F
WAUSAU         CLEAR     52  45  77 CALM      29.97F
MOSINEE        CLEAR     50  45  81 S9        30.00S
MARSHFIELD     CLEAR     52  42  69 SW10      29.98F
WISC RAPIDS    CLEAR     52  45  77 S7        30.01F
STEVENS POINT  CLEAR     47  43  85 S6        30.01S
WAUPACA        CLEAR     52  45  75 S5        30.02S
SHAWANO        CLEAR     53  46  76 CALM      30.00S
CLINTONVILLE   CLEAR     52  45  76 SW7       30.01S
WAUTOMA        CLEAR     42  41  96 CALM      30.04S
$$

WIZ038-039-048-051-180700-
FOX VALLEY

CITY           SKY/WX    TMP DP  RH WIND       PRES   REMARKS
NWS GREEN BAY  CLEAR     56  48  74 S10       30.02S
APPLETON       CLEAR     54  41  62 SW12      30.02S
OSHKOSH        CLEAR     54  43  66 SW13      30.04S
FOND DU LAC    CLEAR     57  40  52 S8        30.06S
$$

WIZ022-050-052-180700-
EAST CENTRAL WISCONSIN

CITY           SKY/WX    TMP DP  RH WIND       PRES   REMARKS
EPHRAIM        FAIR      58  46  64 SW7G17    29.99S
WASHINGTON ISL FAIR      54  50  87 S3        29.98F
STURGEON BAY   CLEAR     57  45  64 SW13      30.01S
MANITOWOC      CLEAR     59  43  55 SW8       30.05S
SHEBOYGAN      CLEAR     51  43  74 SW9       30.06S
$$

LMZ563-521-522-541>543-180700-
LAKESHORE

STATION/POSITION TIME  TEMP    WIND        PRES    VSBY  WAVE
                       AIR SEA DIR/SP/G                  HT/PER
                 (UTC) (F)     (DEG/KT/KT) (MB)    (MI)  (FT/S)
SHEBOYGAN LKSHOR 0600   56     200/ 13/ 14 1017.7S
KEWAUNEE LKSHORE 0548          210/  9/ 12 1015.8R
NORTHPORT PIER   0540   55     160/  3/  6 1015.6S
N MID LAKE BUOY  0550   61 59  190/ 12/ 14 1016.4F         3/ 6
S GREEN BAY BUOY 0600   60 58  210/ 17/ 19 1015.4
SISTER BAY LKSHO 0604   62     210/ 15/ 20   N/A
MENOMINEE LKSHOR 0548          210/ 10/ 12 1015.1F
$$




USA.gov is the U.S. government's official web portal to all federal, state and local government web resources and services.